STARLINK AP

Last updated on June 19, 2020, 12:02 a.m. UTC

1 45767U 20038AP  20170.66667824  .00095551  11276-4  11877-3 0  9990
2 45767  52.9994 272.2339 0111174  69.1505  30.3610 15.96247846  1936

Satellite is not in orbit.